Weather History for KMDS - October, 2013

Change the Weather History Date:

Tuesday, October 1, 2013

  Actual Average Record
Temperature  
Mean Temperature 60 °F -  
Max Temperature 71 °F 69 °F 75 °F (2010)
Min Temperature 46 °F 42 °F 42 °F (2010)
Degree Days  
Heating Degree Days 6    
Growing Degree Days 10 (Base 50)    
Moisture  
Dew Point 39 °F    
Average Humidity 50    
Maximum Humidity 100    
Minimum Humidity 19    
Precipitation  
Precipitation 0.00 in - - ()
Sea Level Pressure  
Sea Level Pressure 29.89 in    
Wind  
Wind Speed 12 mph (WNW)    
Max Wind Speed 21 mph    
Max Gust Speed 29 mph    
Visibility 10 miles    
Events      
Averages and records for this station are not official NWS values.
T = Trace of Precipitation, MM = Missing Value Source: NWS Daily Summary

Daily Weather History Graph

Daily Weather History Graph

Search for Another Location

Airport or City:

Trip Planner

Search our weather history database for the weather conditions in past years. The results will help you decide how hot, cold, wet, or windy it might be!

Date:

Astronomy

Oct. 01, 2013 Rise Set
Actual Time 7:26 AM CDT 7:08 PM CDT
Civil Twilight 6:57 AM CDT 7:37 PM CDT
Nautical Twilight 6:24 AM CDT 8:10 PM CDT
Astronomical Twilight 5:50 AM CDT 8:44 PM CDT
Moon 3:55 AM CDT (10/1) 5:17 PM CDT (10/1)
Length of Visible Light 12h 39m
Length of Day
11h 42m
Waning Crescent, 12% of the Moon is Illuminated
Oct 1
Waning Crescent
Oct 4
New
Oct 11
First Quarter
Oct 18
Full
Oct 26
Last Quarter

Hourly Weather History & Observations

Time (CDT) Temp. Dew Point Humidity Pressure Visibility Wind Dir Wind Speed Gust Speed Precip Events Conditions
12:10 AM 68.0 °F 48.2 °F 49% 29.59 in 10.0 mi SW 16.1 mph 28.8 mph N/A   Clear
12:30 AM 68.0 °F 48.2 °F 49% 29.59 in 10.0 mi SW 18.4 mph 24.2 mph N/A   Clear
12:50 AM 68.0 °F 48.2 °F 49% 29.61 in 10.0 mi SW 15.0 mph 23.0 mph N/A   Clear
1:10 AM 68.0 °F 48.2 °F 49% 29.61 in 10.0 mi SW 16.1 mph 21.9 mph N/A   Clear
1:30 AM 66.2 °F 48.2 °F 52% 29.62 in 10.0 mi SW 16.1 mph 25.3 mph N/A   Clear
1:50 AM 66.2 °F 48.2 °F 52% 29.63 in 10.0 mi WSW 17.3 mph 27.6 mph N/A   Clear
2:10 AM 66.2 °F 48.2 °F 52% 29.65 in 10.0 mi WNW 16.1 mph 24.2 mph N/A   Clear
2:30 AM 62.6 °F 48.2 °F 59% 29.68 in 10.0 mi NW 15.0 mph 20.7 mph N/A   Clear
2:50 AM 60.8 °F 48.2 °F 63% 29.70 in 10.0 mi WNW 12.7 mph 20.7 mph N/A   Clear
3:10 AM 59.0 °F 48.2 °F 67% 29.72 in 10.0 mi WNW 12.7 mph 18.4 mph N/A   Clear
3:30 AM 57.2 °F 48.2 °F 72% 29.73 in 10.0 mi WNW 12.7 mph - N/A   Clear
3:50 AM 57.2 °F 48.2 °F 72% 29.74 in 10.0 mi WNW 11.5 mph - N/A   Clear
4:10 AM 55.4 °F 48.2 °F 77% 29.77 in 10.0 mi West 10.4 mph - N/A   Clear
4:30 AM 55.4 °F 48.2 °F 77% 29.78 in 10.0 mi West 10.4 mph - N/A   Clear
4:50 AM 55.4 °F 48.2 °F 77% 29.80 in 10.0 mi WNW 10.4 mph - N/A   Clear
5:10 AM 53.6 °F 48.2 °F 82% 29.80 in 10.0 mi NW 12.7 mph - N/A   Clear
5:30 AM 53.6 °F 48.2 °F 82% 29.82 in 10.0 mi WNW 12.7 mph - N/A   Clear
5:50 AM 51.8 °F 48.2 °F 88% 29.83 in 10.0 mi NW 11.5 mph - N/A   Clear
6:10 AM 51.8 °F 48.2 °F 88% 29.84 in 10.0 mi NW 10.4 mph - N/A   Clear
6:30 AM 50.0 °F 48.2 °F 94% 29.85 in 10.0 mi NW 10.4 mph - N/A   Clear
6:50 AM 50.0 °F 48.2 °F 94% 29.86 in 10.0 mi NW 9.2 mph - N/A   Clear
7:10 AM 48.2 °F 48.2 °F 100% 29.86 in 10.0 mi NNW 6.9 mph - N/A   Clear
7:30 AM 48.2 °F 48.2 °F 100% 29.88 in 10.0 mi NW 4.6 mph - N/A   Clear
7:50 AM 48.2 °F 48.2 °F 100% 29.89 in 10.0 mi West 4.6 mph - N/A   Clear
8:10 AM 50.0 °F 48.2 °F 94% 29.90 in 10.0 mi West 5.8 mph - N/A   Clear
8:30 AM 51.8 °F 46.4 °F 82% 29.91 in 10.0 mi WNW 8.1 mph - N/A   Clear
8:50 AM 53.6 °F 46.4 °F 77% 29.92 in 10.0 mi NW 9.2 mph - N/A   Clear
9:10 AM 53.6 °F 46.4 °F 77% 29.93 in 10.0 mi NW 10.4 mph - N/A   Clear
9:30 AM 57.2 °F 44.6 °F 63% 29.94 in 10.0 mi NW 11.5 mph 17.3 mph N/A   Clear
9:50 AM 59.0 °F 42.8 °F 55% 29.94 in 10.0 mi NW 11.5 mph 17.3 mph N/A   Clear
10:10 AM 60.8 °F 41.0 °F 48% 29.94 in 10.0 mi NNW 13.8 mph - N/A   Clear
10:30 AM 64.4 °F 37.4 °F 37% 29.95 in 10.0 mi NNW 13.8 mph 18.4 mph N/A   Clear
10:50 AM 64.4 °F 35.6 °F 34% 29.95 in 10.0 mi NNW 16.1 mph 21.9 mph N/A   Clear
11:10 AM 66.2 °F 33.8 °F 30% 29.96 in 10.0 mi NW 20.7 mph - N/A   Clear
11:30 AM 66.2 °F 32.0 °F 28% 29.96 in 10.0 mi NNW 17.3 mph 21.9 mph N/A   Clear
11:50 AM 66.2 °F 32.0 °F 28% 29.97 in 10.0 mi NNW 17.3 mph 23.0 mph N/A   Clear
12:10 PM 68.0 °F 30.2 °F 24% 29.97 in 10.0 mi NW 18.4 mph - N/A   Clear
12:30 PM 68.0 °F 30.2 °F 24% 29.97 in 10.0 mi NNW 17.3 mph 25.3 mph N/A   Clear
12:50 PM 68.0 °F 30.2 °F 24% 29.97 in 10.0 mi NNW 13.8 mph 21.9 mph N/A   Clear
1:10 PM 68.0 °F 30.2 °F 24% 29.97 in 10.0 mi NW 13.8 mph 19.6 mph N/A   Clear
1:30 PM 68.0 °F 32.0 °F 26% 29.97 in 10.0 mi NNW 12.7 mph 20.7 mph N/A   Clear
1:50 PM 69.8 °F 32.0 °F 25% 29.97 in 10.0 mi NW 11.5 mph 19.6 mph N/A   Clear
2:10 PM 69.8 °F 32.0 °F 25% 29.97 in 10.0 mi NW 9.2 mph 16.1 mph N/A   Clear
2:30 PM 71.6 °F 30.2 °F 22% 29.97 in 10.0 mi NW 12.7 mph 18.4 mph N/A   Clear
2:50 PM 71.6 °F 32.0 °F 23% 29.97 in 10.0 mi WNW 10.4 mph - N/A   Clear
3:10 PM 71.6 °F 32.0 °F 23% 29.97 in 10.0 mi WNW 10.4 mph 17.3 mph N/A   Clear
3:30 PM 71.6 °F 28.4 °F 20% 29.97 in 10.0 mi WNW 9.2 mph 16.1 mph N/A   Clear
3:50 PM 71.6 °F 28.4 °F 20% 29.97 in 10.0 mi WNW 5.8 mph - N/A   Clear
4:10 PM 71.6 °F 28.4 °F 20% 29.97 in 10.0 mi West 9.2 mph - N/A   Clear
4:30 PM 71.6 °F 26.6 °F 19% 29.97 in 10.0 mi West 11.5 mph - N/A   Clear
4:50 PM 71.6 °F 28.4 °F 20% 29.96 in 10.0 mi NW 10.4 mph - N/A   Clear
5:10 PM 71.6 °F 28.4 °F 20% 29.96 in 2.5 mi NW 8.1 mph - N/A   Haze
5:30 PM 69.8 °F 28.4 °F 21% 29.97 in 10.0 mi NW 8.1 mph - N/A   Clear
5:50 PM 69.8 °F 30.2 °F 23% 29.96 in 1.2 mi NNW 8.1 mph - N/A   Haze
6:10 PM 68.0 °F 30.2 °F 24% 29.96 in 10.0 mi NW 4.6 mph - N/A   Clear
6:30 PM 66.2 °F 32.0 °F 28% 29.97 in 10.0 mi WNW 3.5 mph - N/A   Clear
6:50 PM 66.2 °F 32.0 °F 28% 29.97 in 10.0 mi NW 3.5 mph - N/A   Clear
7:10 PM 64.4 °F 32.0 °F 30% 29.97 in 10.0 mi Calm Calm - N/A   Clear
7:30 PM 62.6 °F 32.0 °F 32% 29.97 in 10.0 mi Calm Calm - N/A   Clear
7:50 PM 57.2 °F 33.8 °F 41% 29.98 in 10.0 mi Calm Calm - N/A   Clear
8:10 PM 59.0 °F 32.0 °F 36% 29.99 in 10.0 mi Calm Calm - N/A   Clear
8:30 PM 55.4 °F 33.8 °F 44% 29.99 in 10.0 mi Calm Calm - N/A   Clear
8:50 PM 55.4 °F 32.0 °F 41% 29.99 in 10.0 mi Calm Calm - N/A   Clear
9:10 PM 53.6 °F 37.4 °F 54% 29.99 in 10.0 mi Calm Calm - N/A   Clear
9:30 PM 53.6 °F 35.6 °F 51% 29.99 in 10.0 mi Calm Calm - N/A   Clear
9:50 PM 51.8 °F 35.6 °F 54% 30.00 in 10.0 mi Calm Calm - N/A   Clear
10:10 PM 48.2 °F 35.6 °F 62% 30.00 in 10.0 mi Calm Calm - N/A   Clear
10:30 PM 48.2 °F 33.8 °F 58% 30.01 in 10.0 mi Calm Calm - N/A   Clear
10:50 PM 48.2 °F 35.6 °F 62% 30.01 in 10.0 mi Calm Calm - N/A   Clear
11:10 PM 48.2 °F 33.8 °F 58% 30.01 in 10.0 mi Calm Calm - N/A   Clear
11:30 PM 48.2 °F 35.6 °F 62% 30.01 in 10.0 mi Calm Calm - N/A   Clear
11:50 PM 46.4 °F 35.6 °F 66% 30.01 in 10.0 mi Calm Calm - N/A   Clear